Showing default

PERSEUS M1, 40039

Orbit data source: Space-Track

PERSEUS M1, 40039 is a payload satellite owned by Canopus Sys (CIS) in SSO that was launched on Thu, 19 Jun 2014 UTC via a DNEPR launch vehicle from the Orenburg, Russia (OREN). Payload-class satellites include a variety of spacecraft equipped with specific instruments for various scientific and technological missions. These include communications satellites like Starlink; space stations such as the ISS; scientific satellites like the Hubble; Earth observation satellites from companies like Planet Labs, Umbra, and HawkEye 360; GPS; miniature CubeSats for education and research; and military/defense satellites.

Loading next visibility...
Identifier
40039, 2014-033AF
Orbit
SSO
Country
Flag of CISCIS
Related business
None
Manufacturer
Canopus Sys
Mission
Operational Commercial Communications
Bus & Motor
CUBESAT 6U, Unknown motor
Mass
~10 kg wet, ~10 kg dry
Launch date (UTC)
2014-06-19 (11 years ago)
Launch vehicle
DNEPR
Launch site
Orenburg, Russia (OREN)
Object type
Payload
Rocket body
Debris
Shape & HBR
Box, 0.1 m
Radar Cross Section
0.105 m², Medium (>0.1 m² and < 1m²)

Expand to show TLE details & history
Last TLE update: 16 hours ago

TLE from 16 hours ago
0 PERSEUS M1
1 40039U 14033AF  25261.22806426  .00002183  00000-0  20947-3 0  9992
2 40039  97.9325 196.6744 0013414 116.0457 244.2145 14.94103798610002
Epoch: 2025-09-18T05:28Z
TLE epoch observation values (Epoch: 2025-09-18T05:28:24.752Z)
Latitude
-0.00002°
Longitude
117.17859°
Altitude
592.27 km
Speed
7.562 km/s
True Right ascension
13h 06m 41s
True Declination
0° 00' 00"
Sunlit
Object was in daylight at epoch
Visualization orbit readout
Latitude
Unknown
Longitude
Unknown
Altitude
Unknown
Speed
Unknown
Apparent Right ascension
Unknown
Apparent Declination
Unknown
Sunlit
N/A
Visualization observer readout
Local Sidereal Time
14:41:14
Azimuth
Unknown
Elevation
Unknown
Doppler factor
Unknown
Orbital elements
Apogee altitude
591.516 km
Perigee altitude
572.843 km
Semi-major axis
6,960.316 km
Eccentricity
0.00134
Inclination
97.9325°
RAAN
196.6744°
Arg. of periapsis
116.0457°
True anomaly
244.07619°
Mean anomaly
244.2145°
Eccentric anomaly
244.14534°
Mean motion
3.73766 °/min
Orbital period
96.32 mins
BSTAR
0.00020947
Loading maneuver chart data...
Computing Atmospheric mass density...
Loading historical data...
Loading historical data...
Loading historical data...
Loading historical data...
Loading historical data...
Loading historical data...
Loading historical data...

Documentation

Showing up to 5 results
|